Skip to content

GuitarMania

(*.49.62.228) 조회 수 19583 댓글 2
연주 참 좋았습니다. 저도 매니아 중의 매니아인데...

참으로 듣기 편하고 소르풍이 납니다. 짧지만 아름답고 우아합니다.
전 영 실력이 안 늘어요.
그래도 포기치 않고 계속 합니다.
마이크는 어떤 것?  녹음은 어떻게 하는지 궁금하네요?
Comment '2'
  • 한민이 2007.09.06 13:49 (*.232.201.239)
    그냥 전문적으로 하실거 아니면요

    소니 마이크 왠만한거 하나 사셔서 그냥 피씨에 꼽으시고

    녹음툴 (제트오디오 같은거)로 녹음하시면 될 듯..


    사운드포지같은 편집프로그램으로 화장좀 하시면 좋구요..
  • 샤콘느1004 2007.09.06 14:00 (*.216.43.8)
    예... 정황을 읽어보니 아무래도 저에게 물으신거 같아서
    말씀드리자면
    예전에는 소니마이크로 피씨에 꼽아 녹음하고 했는데
    소리가 너무 작고 사운드카드를 아무래도 업그레이드해야될거 같고
    고생많이했습니다.
    그래서 요즘은 그냥 iaudio5 엠피3로 녹음하고 약간 리버브주고 바로 올립니다.
    간편하긴한데 엠피3 녹음은 너무가까이서 하면 소리가 많이 튑니다.
    일단 녹음의 갈증을 푸시는데는 엠피3이 좋고
    좀 더 들어가시려면 자유게시판이나 질문게시판에서
    녹음이라는 단어로 검색해보시면 상당한 글들이 나오니 참고해보세요 ^^
?

List of Articles
번호 제목 글쓴이 날짜 조회 수
1836 Love Affair 6 2007.06.02 19027
1835 zapateado///rodrigo 13 김은미 2007.06.03 23935
1834 최후의 트레몰로 (리버브효과없는겁니다..;;) 4 file JoDaC 2007.06.09 19127
1833 최후의 트레몰로 입니다 ^^ 32 file JoDaC 2007.06.06 23324
1832 전설 11 file 최병욱 2007.06.06 23245
1831 I believe 13 file orpheus15 2007.06.08 19167
1830 Romance.3번. 10 file 우체국가는길 2007.06.08 23800
1829 Kiss the Rain 이루마 곡 (기타 연주) 44 file 아이모레스 2007.06.12 26594
1828 오 솔레미오 4 file 밀롱가. 2007.06.14 21078
1827 Recuerdos de la Alhambra -F. Tarrega 12 file Jason 2007.06.15 23484
1826 알함브라 다시녹음했습니다~ 14 file 최병욱 2007.06.16 21552
1825 [re] 소르 연습곡 6번-리버브를 넣어보았습니다. 1 file niceplace 2007.06.20 21623
1824 소르 연습곡 6번 8 file niceplace 2007.06.17 21706
1823 Romance.3번. 다시 올려요 6 file 우체국가는길 2007.06.17 25605
1822 뱃노래 - 코스트 12 file fernando 2007.06.19 22288
1821 유키구라모토의 Meditation 18 file 최병욱 2007.06.19 23581
1820 fredric hand의 연습곡 1번 4 file 루하기 2007.06.21 15643
1819 리브라소나티네 3.Fuoco-롤랑디용 27 file MSGr 2007.06.21 28235
1818 바흐 샤콘느 10 file 좁은길로 2007.06.26 23023
1817 쉘부르의 우산 3 file nice guy 2007.06.27 22387
1816 Koyunbaba - C. Domeniconi 25 file 진느 2007.06.27 19698
1815 F. Tarrega,Capricho Arabe 33 file Jason 2007.06.28 22559
1814 Agua e Vinho - Egberto Gismonti 18 file limnz 2007.06.29 21881
1813 BWV1006a 프렐류드 3 file 좁은길로 2007.06.29 21628
1812 이노래어떤가요? Pulo do Gato(P.Bellinati) 15 file MSGr 2007.07.01 26294
1811 L'HYMNE A L'AMOUR / E.PIAF 24 file April 2007.07.04 20753
1810 Kleine Romanze- L. Walker 10 file Jason 2007.07.05 20416
1809 Triste Santuario by Vincent Gomez-슬픈 예배당 17 file Jason 2007.07.05 24281
1808 대성당1악장 8 file 좁은길로 2007.07.05 19963
1807 이루마의 When the love falls 7 file 최병욱 2007.07.07 43314
1806 종소리 12 file 좁은길로 2007.07.07 23273
1805 소르의 마적입니다... 19 file 화가 2007.07.08 27587
1804 brahms-theme and variations 20 file 기타레타 2007.07.09 29541
1803 [영상] 엘레지 Elegie (메르츠 Mertz) 3 2007.07.09 22484
1802 이병우 - 달려 18 file 김상욱 2007.07.09 21843
1801 대성당2악장 4 file 좁은길로 2007.07.09 31209
1800 도적의 노래-ibach 연주 16 file 바하의꿈 2007.07.10 22760
1799 하프시 팟사 완주--! 4 file 좁은길로 2007.07.10 21047
1798 핑거스타일- Sun dance (Kotaro Oshio) 7 file 최병욱 2007.07.11 24915
1797 Giuliani-- Rossiniana No.1 (글로빌 아트홀 실황연주) 15 file LDH 2007.07.11 18515
1796 엔커리지먼트-소르 39 file 기타레타 2007.07.11 22635
1795 이 곡 제목이 뭔가요? 3 file -_ - 2007.07.12 18921
1794 헨델의 아리아 23 file 아이모레스 2007.07.12 22545
1793 G선상의 아리아 - J.S.BACH 43 file 기타레타 2007.07.13 23229
1792 이루마의 Kiss the Rain 6 file 최병욱 2007.07.13 22944
1791 Pierre Bensusan - 아도니스의 정원 12 file 찬찬 2007.07.14 24127
1790 Bach - BWV1007 Prelude & Allemande 16 file 김상욱 2007.07.14 21975
1789 Wonderful tonight 43 file - 情 - 2007.07.14 25048
1788 Variation on Theme of Mozart - F.Sor 32 file Jason 2007.07.15 22978
1787 월량대표아적심(月亮代表我的心) 29 이진성 2007.07.19 25191
1786 Fantasia Arabe by Sabicas 22 file Jason 2007.07.22 18845
1785 샤콘느 뒤에뒤부분 7 file 좁은길로 2007.07.23 19567
1784 유키 구라모토의 Lake Louise(새로운 편곡) 17 file 최병욱 2007.07.23 22764
1783 Aria no.1 - F. Kleynjans 11 file bradpitt 2007.07.24 22663
1782 Septiembre (Maximo Diego Pujol) 21 file 라일 2007.07.26 21362
1781 (이중주) Green Sleeves 20 file niceplace 2007.07.27 24157
1780 BWV1006a Prelude 7 file 좁은길로 2007.07.27 25025
1779 A. Piazzolla Quattro Stagioni (부에노스아이레스의 사계) 1. Primavera portend (봄) 8 file sgq 2007.07.27 22583
1778 A. Piazzolla Oblivion(망각) 3 file sgq 2007.07.27 22379
1777 A. Piazzolla Liebertango 1 file sgq 2007.07.27 23299
1776 P. Bellinati Baiao de Gude 서울기타콰르텟 4 file sgq 2007.07.27 23201
1775 사람이 꽃보다 아름다워~~~ 4 야매 2007.07.28 23274
1774 Fur Elise by L. Van Beethoven 62 file Jason 2007.07.28 26610
1773 부탁 김효석 2007.07.29 18583
1772 클레이앙스-로망스1번(이중주) 6 file 기타레타 2007.07.30 19104
1771 Lamento No.2 / F. Kleynjans 12 file 이진성 2007.08.01 20516
1770 The old rugged cross by G. Bennard 10 file Jason 2007.08.02 21952
1769 로망스 no.1(이중주)-끌레앙 16 file 체르니 2007.08.04 31725
1768 Sleeprs, Awake! 눈뜨라부르는소리있어 7 file 좁은길로 2007.08.05 19983
1767 Estudio No.12 / F. Sor 13 file 이진성 2007.08.06 22448
1766 Partners in Praise / 안신영님 편곡 10 file orpheus15 2007.08.07 19506
1765 알베니즈-야자나무 아래에서 13 file 기타레타 2007.08.08 28551
1764 로드리고 // 고풍스런 티엔토 30 file 진느 2007.08.08 25130
1763 Sor Etude#6 10 file 밀롱가. 2007.08.10 20317
1762 Classical Gas/Mason Williams -클래식컬 개스 23 file Jason 2007.08.10 22666
1761 Adelita 2 file sky600 2007.08.12 14774
1760 maria luisa 6 file sky600 2007.08.12 23553
1759 sunflower 14 file 한사랑 2007.08.13 21039
1758 Tango En Skai 11 file 좁은길로 2007.08.13 23899
1757 바흐 // Choral from cantata147 arr.David Russell 31 file 진느 2007.08.14 20409
1756 milonga 6 file 2007.08.15 21593
1755 [동영상] Barrios - Una Limosna por el amor de Dios (최후의 트레몰로) 39 file 김상욱 2007.08.17 27480
1754 텅 빈 놀이터 II by devilous 9 file devilous 2007.08.20 20189
1753 Sleepers, Awake! from Cantata BWV140 9 file April 2007.08.20 20063
1752 Yuichi Watanabe - Morning Dew 5 file 2007.08.21 23176
1751 Falla--ThreeCorneredHat(KimMoonHyung & Chung Sehee) 7 file 바하의꿈 2007.08.21 24657
1750 망고레의 Contemplacion (깊은 그리움) 24 file 아이모레스 2007.08.22 21953
1749 헨델의 대장간변주?^^ Handel--Blacksmith Variations 19 file 바하의꿈 2007.08.23 23599
1748 F. Sor의 인커리지먼트 18 file 바하의꿈 2007.08.24 24670
1747 알함브라궁전의 추억 12 file 정면 2007.08.24 21384
1746 죄송한! 탕고 안 스까이 바이 로랑디앙 (조율 맞춰 재업)ㅠ 8 file buyho 2007.08.26 16664
1745 Stairway to Heaven, Classical/Unplugged version 기악 독주 7 file 2007.08.28 25142
1744 Les Feuilles Mortes (고엽) - Joseph Kosma 20 file 고정석 2007.08.29 21355
1743 Beautiful Dreamer(토스토) 7 file 까치 2007.08.30 23052
1742 줄리아니 기타협주곡 5 file buyho 2007.09.04 20455
1741 가을편지 / 안형수 편곡 15 file orpheus15 2007.09.04 22599
» 녹음은 어떻게 하나요? 2 소르초이 2007.09.05 19583
1739 TOmmy Emmanuel-Angelina 10 file 좁은길로 2007.09.05 19020
1738 내마음의 보석상자(동영상) 7 야매 2007.09.07 24347
1737 Venus(동영상) 4 야매 2007.09.07 27033
Board Pagination ‹ Prev 1 ... 11 12 13 14 15 16 17 18 19 20 21 22 23 24 25 26 27 28 29 30 ... 39 Next ›
/ 39

나눔글꼴 설치 안내


이 PC에는 나눔글꼴이 설치되어 있지 않습니다.

이 사이트를 나눔글꼴로 보기 위해서는
나눔글꼴을 설치해야 합니다.

설치 취소

Designed by sketchbooks.co.kr / sketchbook5 board skin

Sketchbook5, 스케치북5

Sketchbook5, 스케치북5

Sketchbook5, 스케치북5

Sketchbook5, 스케치북5

Powered by Xpress Engine / Designed by hikaru100

abcXYZ, 세종대왕,1234

abcXYZ, 세종대왕,1234